sat.trackr.live / text

‹ back to catalog

STARLINK-32552

NORAD 62174 · 2024-225M

PAYLOAD ACTIVE UNKNOWN

§ Identity

Operator
Country
US
Launch date
2024-11-30
Launch site
AFWTR
Launch vehicle
Mass (kg)
RCS (m²)

Purposes: comms

External: N2YO · Heavens-Above · Gunter

§ Orbital elements

Epoch: 2026-09-21T17:37:39.312192Z

Period
96.11 min
Inclination
70.0024°
Eccentricity
0.0002924
Mean motion
14.98339927 rev/d
Perigee alt
570.0 km
Apogee alt
574.1 km
Semi-major
6,950.2 km
B*
1.0713e-4
RAAN
30.0392°
Arg perigee
276.3999°
Mean anomaly
83.6827°
Rev number
9,924

§ Raw data

STARLINK-325521 62174U 24225M   26264.73448278  .00001186  00000+0  10713-3 0  99982 62174  70.0024  30.0392 0002924 276.3999  83.6827 14.98339927 99247

JSON: /api/v1/satellites/62174 · /tle

For live sub-satellite position, see the globe view (requires WebGL).

§ Visibility from observer

Set your observer location to see the next 7 days of passes ≥ 10°. The values pass through the URL so the page stays shareable.

No JS? Fill the form by hand. The geolocation button needs JavaScript.